Dewpoint
75 75 74 74 74 73 74 74 72 72 75 72 72 73 73 75 77 75 74 75 76 77 77 79 79 79 79 79 79 79 79 77 75 76 77 76 75 72 67 70 74 79
75 75 75 73 76 76 76 74 73 74 75 77 74 75 75 75 75 74 74 74 76 75 78 77 78 78 78 77 79 77 79 78 76 70 74 75 76 73 69 71 69 73
73 74 72 72 70 71 68 70 73 72 71 71 72 75 73 74 73 77 76 75 74 73 78 78 78 78 77 78 79 77 76 78 76 72 75 75 74 75 74 67 69 69
74 73 71 70 70 70 69 70 72 73 71 72 71 69 70 69 74 74 77 76 76 76 76 76 77 76 77 77 79 77 77 78 76 77 77 76 75 73 71 73 71 69
72 72 72 71 70 72 71 70 67 68 68 71 68 73 74 77 74 73 75 75 77 74 76 76 77 76 78 77 79 78 76 76 77 78 79 77 76 75 71 72 74 72
74 74 73 71 72 72 69 68 69 68 68 66 69 69 69 73 72 71 72 72 71 71 71 72 74 74 75 77 78 78 75 73 75 77 77 77 74 73 69 73 74 74
72 73 71 70 68 69 69 69 69 70 67 66 70 69 69 69 71 72 73 73 71 73 70 73 75 74 74 77 78 78 78 78 77 77 77 76 77 76 71 73 75 74
71 71 72 70 67 67 68 68 68 69 70 69 67 69 69 67 71 69 71 72 71 72 72 72 75 76 72 74 76 77 76 72 74 78 77 76 76 76 76 74 77 76
71 72 72 70 67 65 64 64 65 67 68 69 65 64 68 68 69 69 73 73 72 73 74 74 76 73 73 73 74 76 75 73 71 75 76 75 75 76 75 76 75 76
72 72 70 69 67 65 64 63 63 65 67 67 65 63 65 68 70 69 72 74 73 74 75 73 76 73 72 73 75 75 75 75 76 75 74 75 75 74 73 74 74 75
70 68 67 69 67 64 63 62 62 61 65 65 64 63 63 66 69 71 72 73 69 72 73 73 73 73 74 71 72 73 74 73 74 76 76 75 74 75 74 75 74 73
74 72 67 65 67 65 63 62 61 60 61 64 64 64 64 63 67 67 69 72 71 71 72 73 74 73 75 74 71 71 73 72 74 75 73 74 74 73 73 73 72 73
74 73 72 66 65 66 64 62 61 59 59 62 64 64 62 59 62 67 68 70 71 70 70 72 73 72 75 75 74 73 73 73 70 72 73 73 73 72 71 71 71 71
74 74 74 72 70 68 68 63 61 61 62 63 65 64 62 59 57 62 66 66 69 69 71 71 74 73 75 76 75 73 72 72 72 71 70 70 70 71 70 69 70 70
74 75 75 73 73 73 71 68 65 64 65 64 67 64 61 61 59 56 64 65 66 70 70 70 70 72 72 74 75 74 73 71 71 71 70 70 69 67 67 68 67 66
74 74 73 74 74 74 73 72 70 67 60 62 63 63 66 67 65 63 60 64 66 68 69 68 68 68 72 69 71 74 74 70 70 71 70 69 71 70 67 66 64 64
75 74 73 73 73 74 74 73 72 71 67 69 68 66 68 73 67 65 61 60 64 65 67 66 67 65 68 64 65 68 72 73 72 73 72 71 70 72 71 67 64 65
74 74 74 74 73 73 73 74 74 72 72 70 71 69 73 69 67 67 68 63 59 62 64 65 66 67 62 63 64 64 69 73 72 70 68 70 68 67 68 67 66 64
73 73 73 73 72 73 74 74 74 73 73 73 72 71 72 71 72 72 70 68 66 69 64 65 66 64 60 61 62 63 63 70 70 71 68 65 66 68 68 70 70 68
69 70 72 73 74 74 74 74 74 74 74 74 74 73 72 71 71 71 71 74 71 70 72 69 71 67 59 59 60 61 62 65 71 69 68 67 67 66 64 67 68 68
68 70 71 72 73 73 74 74 73 73 73 74 74 74 71 72 73 73 72 72 72 70 70 67 65 64 58 57 58 59 60 63 71 67 65 65 65 65 69 67 71 68
69 69 70 71 71 72 72 73 73 73 73 74 74 75 73 74 75 73 73 73 74 73 73 71 70 65 61 57 56 57 60 69 71 70 68 66 65 67 68 71 70 69
66 68 68 68 70 71 72 72 72 72 74 74 73 74 73 73 73 73 75 73 73 73 72 75 73 70 64 59 55 55 59 69 71 72 71 70 68 68 68 68 67 69
66 66 67 66 69 70 71 73 73 73 73 74 73 73 74 73 73 73 74 74 72 72 72 73 72 71 63 58 54 55 61 70 71 72 72 72 71 70 69 68 68 71
64 67 66 65 68 70 71 71 73 73 74 75 74 73 73 74 74 73 73 74 73 72 73 73 72 70 61 57 54 53 59 68 72 72 72 72 72 72 72 71 72 72
63 66 66 66 68 68 70 71 71 70 69 71 72 71 72 73 74 73 73 73 72 73 72 71 71 71 70 56 54 53 54 69 72 72 72 72 72 73 72 73 72 72